CW9887 Weather Reports


time (UTC)temp
C
wind
direction
speed
KPH
gust
KPH
rain 1hr
cm
rain 24hr
cm
rain mn
cm
humidity
%
barometer
mb
20260504193105 20 241 11.3 0.0 0.00 0.00 0.00 42 1004.8
20260504191850 20 248 12.9 0.0 0.00 0.00 0.00 42 1004.4
20260504191532 19 242 12.9 0.0 0.00 0.00 0.00 48 1004.9
20260504190350 19 257 12.9 0.0 0.00 0.00 0.00 45 1004.6
20260504190105 18 244 12.9 0.0 0.00 0.00 0.00 47 1005.0
20260504184844 18 252 6.4 0.0 0.00 0.00 0.00 47 1004.8
20260504184556 17 300 6.4 0.0 0.00 0.00 0.00 47 1005.4
20260504183345 17 241 8.0 0.0 0.00 0.00 0.00 49 1004.9
20260504183042 17 236 8.0 0.0 0.00 0.00 0.00 48 1005.4
20260504181840 17 273 8.0 0.0 0.00 0.00 0.00 48 1004.8
20260504181545 17 240 8.0 0.0 0.00 0.00 0.00 48 1005.4
20260504180339 17 261 9.7 0.0 0.00 0.00 0.00 49 1004.9
20260504180044 17 223 9.7 0.0 0.00 0.00 0.00 50 1005.5
20260504174840 17 223 9.7 0.0 0.00 0.00 0.00 49 1005.0
20260504174612 16 281 9.7 0.0 0.00 0.00 0.00 49 1005.5
20260504173356 16 215 9.7 0.0 0.00 0.00 0.00 49 1005.0
20260504173058 16 224 9.7 0.0 0.00 0.00 0.00 49 1005.6
20260504171853 16 218 11.3 0.0 0.00 0.00 0.00 49 1005.1
20260504171536 16 239 11.3 0.0 0.00 0.00 0.00 48 1005.8
20260504170356 17 173 9.7 0.0 0.00 0.00 0.00 48 1005.1
20260504150348 16 219 12.9 0.0 0.00 0.00 0.00 48 1005.8
20260504140341 14 196 9.7 0.0 0.00 0.00 0.00 55 1006.3
20260504130339 12 207 6.4 0.0 0.00 0.00 0.00 63 1007.0
20260504110117 5 133 0.0 0.0 0.00 0.00 0.00 80 1008.4
20260504090105 5 113 0.0 0.0 0.00 0.00 0.00 73 1008.2
20260504081546 5 113 1.6 0.0 0.00 0.00 0.00 72 1008.5
20260504080344 5 113 1.6 0.0 0.00 0.00 0.00 72 1007.7
20260504070345 5 243 3.2 0.0 0.00 0.00 0.00 69 1007.6
20260504050342 3 224 3.2 0.0 0.00 0.00 0.00 70 1007.4
20260504044839 3 234 3.2 0.0 0.00 0.00 0.00 70 1007.5
20260504044604 3 234 3.2 0.0 0.00 0.00 0.00 70 1008.4
20260504043356 3 241 3.2 0.0 0.00 0.00 0.00 71 1007.4
20260504043100 3 235 3.2 0.0 0.00 0.00 0.00 71 1008.4
20260504041857 3 222 1.6 0.0 0.00 0.00 0.00 71 1007.6
20260504041540 3 222 1.6 0.0 0.00 0.00 0.00 71 1008.5
20260504040338 3 222 1.6 0.0 0.00 0.00 0.00 71 1007.4
20260504034853 3 224 0.0 0.0 0.00 0.00 0.03 70 1007.3
20260504034520 3 224 0.0 0.0 0.00 0.00 0.03 70 1008.2
20260504033104 3 224 3.2 0.0 0.00 0.00 0.03 69 1008.2
20260504031851 4 207 1.6 0.0 0.00 0.00 0.03 69 1007.3
20260504031534 3 207 1.6 0.0 0.00 0.00 0.03 69 1008.1
20260504030351 4 205 1.6 0.0 0.00 0.00 0.03 70 1007.1
20260504030012 3 205 1.6 0.0 0.00 0.00 0.03 69 1008.1
20260504024549 4 205 3.2 0.0 0.00 0.00 0.03 67 1007.9
20260504023347 4 201 3.2 0.0 0.00 0.00 0.03 67 1007.3
20260504023045 4 201 3.2 0.0 0.00 0.00 0.03 67 1008.2
20260504021843 5 201 3.2 0.0 0.00 0.00 0.03 66 1007.4
20260504021544 5 201 3.2 0.0 0.00 0.00 0.03 66 1008.2
20260504020347 5 212 3.2 0.0 0.00 0.00 0.03 64 1007.4
20260504020008 5 211 3.2 0.0 0.00 0.00 0.03 64 1008.3
20260504014542 5 213 1.6 0.0 0.00 0.00 0.03 63 1008.1
20260504013340 5 213 1.6 0.0 0.00 0.00 0.03 64 1007.2
20260504013043 5 213 1.6 0.0 0.00 0.00 0.03 64 1007.9
20260504011838 5 214 1.6 0.0 0.00 0.00 0.03 62 1007.8
20260504011545 5 214 1.6 0.0 0.00 0.00 0.03 62 1007.9
20260504010359 6 218 3.2 0.0 0.00 0.00 0.03 62 1006.9
20260504010015 5 218 3.2 0.0 0.00 0.00 0.03 63 1007.9
20260504004557 6 211 3.2 0.0 0.00 0.00 0.03 60 1007.7
20260504003355 6 240 3.2 0.0 0.00 0.00 0.03 61 1006.6
20260504003014 6 198 3.2 0.0 0.00 0.00 0.03 61 1007.5
20260504001541 6 197 1.6 0.0 0.00 0.00 0.03 61 1007.2
20260504000354 6 224 3.2 0.0 0.00 0.00 0.03 59 1006.3
20260504000058 6 231 3.2 0.0 0.00 0.00 0.03 59 1007.0
20260503234855 7 223 3.2 0.0 0.00 0.00 0.03 58 1006.2
20260503234513 7 229 3.2 0.0 0.00 0.00 0.03 58 1007.0
20260503233053 7 213 3.2 0.0 0.00 0.00 0.03 56 1006.9
20260503231851 7 167 3.2 0.0 0.00 0.00 0.03 55 1006.1
20260503231535 7 210 3.2 0.0 0.00 0.00 0.03 56 1006.9
20260503230356 7 229 4.8 0.0 0.00 0.00 0.03 55 1005.9
20260503230055 7 219 6.4 0.0 0.00 0.00 0.03 54 1006.7
20260503224853 8 182 6.4 0.0 0.00 0.00 0.03 53 1005.7
20260503224551 8 184 6.4 0.0 0.00 0.00 0.03 53 1006.6
20260503223349 8 176 6.4 0.0 0.00 0.00 0.03 52 1005.6
20260503223053 8 161 6.4 0.0 0.00 0.00 0.03 52 1006.4
20260503221850 8 182 4.8 0.0 0.00 0.00 0.03 53 1005.5
20260503221539 8 19 4.8 0.0 0.00 0.00 0.03 52 1006.3
20260503220350 8 232 6.4 0.0 0.00 0.00 0.03 52 1005.4
20260503220108 8 188 6.4 0.0 0.00 0.00 0.03 52 1006.1
20260503214852 9 222 4.8 0.0 0.00 0.00 0.03 51 1005.4
20260503214550 9 216 4.8 0.0 0.00 0.00 0.03 51 1006.0
20260503213348 8 277 6.4 0.0 0.00 0.00 0.03 51 1005.1
20260503213049 8 267 6.4 0.0 0.00 0.00 0.03 52 1005.9
20260503211844 8 213 6.4 0.0 0.00 0.00 0.03 52 1005.1
20260503211601 8 277 6.4 0.0 0.00 0.00 0.03 51 1006.1
20260503210347 8 208 8.0 0.0 0.00 0.00 0.03 50 1004.9
20260503210049 8 175 8.0 0.0 0.00 0.00 0.03 50 1005.8
20260503204845 8 175 6.4 0.0 0.00 0.00 0.03 52 1004.8
20260503204542 8 256 6.4 0.0 0.00 0.00 0.03 50 1005.4
20260503203340 8 180 8.0 0.0 0.00 0.00 0.03 51 1004.6
20260503203043 8 140 8.0 0.0 0.00 0.00 0.03 51 1005.4
20260503201842 8 256 8.0 0.0 0.00 0.00 0.03 51 1004.6
20260503201545 8 331 8.0 0.0 0.00 0.00 0.03 50 1005.4
20260503200003 8 45 4.8 0.0 0.00 0.00 0.03 54 1005.5
20260503194549 8 117 6.4 0.0 0.00 0.00 0.03 54 1005.5
20260503193345 8 337 4.8 0.0 0.00 0.00 0.03 54 1004.6